Regional Weather Roundup
Issued by NWS Midland/Odessa, TX

Skip options and go directly to product.
Home | Oldest Version | Previous Version | Current Version | All | Graphics & Text | Save Text | Print | Product List | Glossary On

Skip product version selection by date and time.   
047
ASUS44 KMAF 200010
RWRMAF
MIDLAND AREA WEATHER ROUNDUP
NATIONAL WEATHER SERVICE MIDLAND TX
700 PM CDT SAT APR 19 2014

...IN SOUTHWEST TEXAS AND SOUTHEAST NEW MEXICO...

CITY           SKY/WX    TMP DP  RH WIND       PRES   REMARKS
ALPINE         CLOUDY    59  46  61 N23G39    30.08R
ANDREWS        FAIR      65  56  72 NE14      30.01F
ARTESIA        CLOUDY    64  54  68 SE5       30.04S
BIG SPRING     MOSUNNY   76  48  37 SE13      30.04F
CARLSBAD       LGT RAIN  65  55  70 E3        30.03R
DRYDEN           N/A     78  53  41 E23G37    29.91F
FORT STOCKTON  CLOUDY    71  49  45 SE28G38   29.88F
GUAD PASS      LGT RAIN  54  52  93 E21       30.13R FOG
HOBBS          CLOUDY    63  54  72 E10       30.08R
MARFA          CLOUDY    55  50  82 N10       30.06R
MIDLAND AIRPK  PTSUNNY   75  49  39 E16       29.98F
MIDLAND INTL   PTSUNNY   74  50  42 SE17      29.98F
ODESSA         PTSUNNY   73  48  41 E17       29.99S
PECOS          RAIN      71  54  55 NE12G22   29.95R
PRESIDIO       FAIR      88  49  26 SE13      29.81F
SEMINOLE       CLOUDY    63  56  78 NE14      30.04F
SNYDER         CLOUDY    75  50  41 SE13      30.04S
WINK           LGT RAIN  74  50  42 NE10      29.95R
$$
...OTHER STATIONS IN TEXAS...

CITY           SKY/WX    TMP DP  RH WIND       PRES   REMARKS
ABILENE        MOSUNNY   76  49  38 SE15      30.04F
AMARILLO       LGT RAIN  63  47  55 SW20      30.07R
AUSTIN         CLOUDY    76  55  48 SE9       30.07S
BROWNSVILLE    CLOUDY    75  64  68 SE16      30.06S
CORPUS CHRISTI PTSUNNY   74  60  61 SE13      30.07F
DALLAS FTW     CLOUDY    74  52  46 SE12      30.08R
DEL RIO        CLOUDY    78  52  40 SE20G28   29.97F
EL PASO        CLOUDY    58  51  78 NE12      30.03S
HOUSTON INT    PTSUNNY   75  56  51 SE10      30.09S
LUBBOCK        CLOUDY    61  56  83 N8        30.04S
SAN ANGELO     PTSUNNY   76  51  41 SE13      30.00F
SAN ANTONIO    CLOUDY    78  54  43 SE14      30.06S
WACO           PTSUNNY   73  53  49 S8        30.09R
WICHITA FALLS  NOT AVBL
$$
...OTHER LOCATIONS IN NEW MEXICO...

CITY           SKY/WX    TMP DP  RH WIND       PRES   REMARKS
ALAMAGORDO     CLOUDY    63  45  51 S8        30.07R
ALBUQUERQUE    PTSUNNY   60  42  51 SW7       30.08R
CANNON AFB     MOSUNNY   58  52  80 SE8       30.05F
CLOVIS         CLOUDY    57  50  77 SE7       30.07F
HOLLOMAN AFB   CLOUDY    67  47  49 S12       30.04R
ROSWELL        CLOUDY    65  52  62 CALM      30.02F
RUIDOSO        PTSUNNY   54  45  71 SE14      30.16R
SANTA FE       CLOUDY    52  42  69 N3        30.11S
TRUTH OR CONSE CLOUDY    62  42  47 SW14G24   30.06R
TUCUMCARI      CLOUDY    61  53  75 SW3       30.02F
$$

USA.gov is the U.S. government's official web portal to all federal, state and local government web resources and services.